Home   Weather   Oranienburg   Past weeks

Flag for Germany Past Weather in Oranienburg, Brandenburg, Germany — Yesterday and Last 2 Weeks

Now
23 °F

Partly sunny.


Feels Like: 18 °F
Forecast: 20 / 29 °F
Wind: 3 mph from Southwest

Location: Berlin-Tegel

Current Time: Jan 18, 2017 at 9:11:32 am

Latest Report: Jan 18, 2017 at 8:20 am


Visibility: 4 mi

Pressure: 30.74 "Hg

Humidity: 93%

Dew Point: 21 °F

Location of OranienburgLocation

Past Weather in Oranienburg — Graph

°F

Oranienburg Temperature Yesterday

Maximum temperature yesterday: 34 °F (at 2:20 pm)
Minimum temperature yesterday: 18 °F (at 7:20 am)
Average temperature yesterday: 25 °F

High & Low Weather Summary for the Past Weeks

 TemperatureHumidityPressure
High41 °F (Jan 4, 1:20 am)100% (Jan 3, 8:20 pm)30.74 "Hg (Jan 3, 8:20 pm)
Low16 °F (Jan 6, 8:50 am)51% (Jan 5, 12:20 pm)29.00 "Hg (Jan 13, 7:50 am)
Average30 °F87%30.04 "Hg
* Reported Jan 3 7:20 am — Jan 18 7:50 am, Oranienburg, Weather by CustomWeather, © 2017

Note: Actual official high and low records may vary slightly from our data, if they occured in-between our weather recording intervals... More about our weather records

Advertising

Oranienburg Weather History for the Previous 24 Hours

Scroll right to see more
 ConditionsComfort  
Time TempWeatherWind HumidityBarometerVisibility
7:50 am
Wed, Jan 18
21 °FIce fog.3 mph100%30.74 "Hg3 mi
7:20 am21 °FIce fog.5 mph100%30.74 "Hg3 mi
6:50 am21 °FIce fog.5 mph93%30.72 "Hg3 mi
6:20 am21 °FPassing clouds.5 mph93%30.72 "Hg4 mi
5:50 am21 °FPassing clouds.5 mph93%30.72 "Hg4 mi
5:20 am21 °FPassing clouds.3 mph93%30.72 "HgN/A
4:50 am19 °FPassing clouds.5 mph100%30.72 "HgN/A
4:20 am19 °FClear.2 mph93%30.72 "Hg10 mi
3:50 am19 °FClear.5 mph100%30.72 "Hg10 mi
3:20 am19 °FClear.3 mph100%30.72 "Hg10 mi
2:50 am21 °FClear.2 mph93%30.72 "Hg10 mi
2:20 am19 °FClear.2 mph93%30.72 "Hg10 mi
1:50 am19 °FClear.2 mph100%30.72 "Hg10 mi
1:20 am21 °FClear.2 mph93%30.72 "Hg10 mi
12:50 am19 °FClear.2 mph100%30.69 "Hg10 mi
12:20 am18 °FClear.1 mph100%30.72 "Hg10 mi
11:50 pm
Tue, Jan 17
18 °FClear.3 mph93%30.69 "Hg10 mi
11:20 pm19 °FClear.2 mph100%30.72 "Hg10 mi
10:50 pm21 °FClear.1 mph93%30.69 "Hg10 mi
10:20 pm21 °FClear.2 mph93%30.69 "Hg10 mi
9:50 pm21 °FClear.1 mph93%30.69 "Hg10 mi
9:20 pm19 °FClear.1 mph100%30.69 "Hg10 mi
8:50 pm19 °FClear.2 mph100%30.69 "Hg10 mi
8:20 pm23 °FClear.1 mph100%30.69 "Hg10 mi
7:50 pm23 °FClear.2 mph93%30.69 "Hg10 mi
7:20 pm23 °FClear.2 mph100%30.69 "Hg10 mi
6:50 pm23 °FClear.1 mph93%30.66 "Hg10 mi
6:20 pm28 °FPassing clouds.2 mph80%30.66 "HgN/A
5:50 pm28 °FPassing clouds.2 mph80%30.66 "HgN/A
5:20 pm28 °FPassing clouds.3 mph86%30.66 "HgN/A
4:50 pm30 °FPassing clouds.1 mph75%30.66 "HgN/A
4:20 pm32 °FPassing clouds.3 mph75%30.63 "HgN/A
3:50 pm32 °FPassing clouds.5 mph75%30.63 "HgN/A
3:20 pm34 °FPassing clouds.3 mph70%30.63 "HgN/A
2:50 pm34 °FPassing clouds.3 mph70%30.63 "HgN/A
2:20 pm34 °FPassing clouds.5 mph70%30.63 "HgN/A
1:50 pm32 °FPassing clouds.3 mph75%30.63 "HgN/A
1:20 pm32 °FPassing clouds.3 mph75%30.63 "HgN/A
12:50 pm32 °FPassing clouds.2 mph75%30.60 "HgN/A
12:20 pm30 °FPassing clouds.2 mph80%30.60 "HgN/A
11:50 am28 °FPassing clouds.3 mph80%30.60 "HgN/A
11:20 am27 °FPassing clouds.5 mph93%30.60 "HgN/A
10:50 am27 °FPassing clouds.6 mph86%30.60 "HgN/A
10:20 am25 °FPassing clouds.3 mph93%30.60 "HgN/A
9:50 am23 °FPassing clouds.No wind100%30.57 "HgN/A
9:20 am21 °FPassing clouds.No wind100%30.57 "HgN/A
Weather by CustomWeather, © 2017

See weather overviewHow to use our weather pages